Mankato, MN

11:54 AM CST on November 22, 2019 (GMT -0600)
Mankato Regional

Weather History for KMKT - September, 2019

Change the Weather History Date:

Friday, September 27, 2019

  Actual Average Record
Temperature  
Mean Temperature 57 °F -  
Max Temperature 66 °F 64 °F 86 °F (2013)
Min Temperature 48 °F 44 °F 37 °F (2002)
Degree Days  
Heating Degree Days 8    
Growing Degree Days 7 (Base 50)    
Moisture  
Dew Point 51 °F    
Average Humidity 74    
Maximum Humidity 93    
Minimum Humidity 60    
Precipitation  
Precipitation 0.00 in - - ()
Sea Level Pressure  
Sea Level Pressure 29.74 in    
Wind  
Wind Speed 9 mph ()    
Max Wind Speed 15 mph    
Max Gust Speed 21 mph    
Visibility 9.8 miles    
Events      
Averages and records for this station are not official NWS values.
T = Trace of Precipitation, MM = Missing Value Source: Averaged Metar Reports

Daily Weather History Graph

Daily Weather History Graph

Search for Another Location

Airport or City:

Astronomy

Sep. 27, 2019 Rise Set
Actual Time 7:08 AM CDT 7:04 PM CDT
Civil Twilight 6:39 AM CDT 7:32 PM CDT
Nautical Twilight 6:05 AM CDT 8:06 PM CDT
Astronomical Twilight 5:31 AM CDT 8:40 PM CDT
Moon 5:24 AM CDT (9/27) 6:59 PM CDT (9/27)
Length of Visible Light 12h 53m
Length of Day
11h 55m
Waning Crescent, 2% of the Moon is Illuminated
Sep 27
Waning Crescent
Sep 28
New
Oct 5
First Quarter
Oct 13
Full
Oct 21
Last Quarter

Hourly Weather History & Observations

Time (CDT) Temp. Dew Point Humidity Pressure Visibility Wind Dir Wind Speed Gust Speed Precip Events Conditions
12:56 AM 62.1 °F 48.9 °F 62% 29.61 in 10.0 mi South 15.0 mph 20.7 mph N/A   Clear
1:56 AM 62.1 °F 50.0 °F 65% 29.59 in 10.0 mi South 10.4 mph 19.6 mph N/A   Clear
2:56 AM 61.0 °F 51.1 °F 70% 29.58 in 10.0 mi South 10.4 mph - N/A   Partly Cloudy
3:56 AM 62.1 °F 52.0 °F 70% 29.56 in 10.0 mi South 11.5 mph 18.4 mph N/A   Clear
4:56 AM 63.0 °F 54.0 °F 72% 29.59 in 10.0 mi Variable 5.8 mph - N/A   Overcast
5:56 AM 62.1 °F 55.0 °F 78% 29.60 in 10.0 mi SW 6.9 mph - N/A   Overcast
6:56 AM 61.0 °F 55.9 °F 83% 29.61 in 6.0 mi SSW 3.5 mph - N/A   Haze
7:56 AM 61.0 °F 55.9 °F 83% 29.62 in 10.0 mi WNW 5.8 mph - N/A   Overcast
8:56 AM 61.0 °F 57.0 °F 87% 29.61 in 10.0 mi Calm Calm - N/A   Overcast
9:56 AM 63.0 °F 55.9 °F 78% 29.64 in 10.0 mi NW 8.1 mph - N/A   Overcast
10:56 AM 64.9 °F 53.1 °F 65% 29.66 in 10.0 mi NNW 11.5 mph - N/A   Mostly Cloudy
11:56 AM 66.0 °F 52.0 °F 60% 29.68 in 10.0 mi NW 15.0 mph - N/A   Clear
12:56 PM 64.0 °F 50.0 °F 60% 29.70 in 10.0 mi NW 12.7 mph - N/A   Clear
1:56 PM 66.0 °F 52.0 °F 60% 29.71 in 10.0 mi NNW 15.0 mph - N/A   Partly Cloudy
2:56 PM 64.0 °F 51.1 °F 63% 29.74 in 10.0 mi NNW 15.0 mph - N/A   Clear
3:56 PM 62.1 °F 51.1 °F 67% 29.76 in 10.0 mi NW 11.5 mph - N/A   Partly Cloudy
4:56 PM 62.1 °F 50.0 °F 65% 29.78 in 10.0 mi NW 12.7 mph - N/A   Partly Cloudy
5:56 PM 60.1 °F 48.9 °F 67% 29.81 in 10.0 mi NW 12.7 mph - N/A   Partly Cloudy
6:56 PM 57.0 °F 48.9 °F 74% 29.85 in 10.0 mi NW 12.7 mph - N/A   Mostly Cloudy
7:56 PM 53.1 °F 46.9 °F 80% 29.90 in 10.0 mi NW 11.5 mph - N/A   Clear
8:56 PM 51.1 °F 46.9 °F 86% 29.92 in 10.0 mi NW 8.1 mph - N/A   Clear
9:56 PM 48.9 °F 46.9 °F 93% 29.93 in 10.0 mi WNW 9.2 mph - N/A   Partly Cloudy
10:07 PM 50.0 °F 46.4 °F 87% 29.92 in 10.0 mi WNW 8.1 mph - N/A   Mostly Cloudy
10:56 PM 51.1 °F 46.9 °F 86% 29.94 in 10.0 mi NW 10.4 mph - N/A   Overcast
11:14 PM 51.8 °F 46.4 °F 82% 29.93 in 10.0 mi NNW 12.7 mph - N/A   Overcast
11:56 PM 50.0 °F 46.9 °F 89% 29.97 in 10.0 mi NNW 12.7 mph - N/A   Mostly Cloudy